Flag for Marshall Islands Weather past 2 weeks in Kwajalein, Marshall Islands

Now
81 °F

Passing clouds.


Feels Like: 85 °F
Forecast: 81 / 87 °F
Wind: 20 mph from Northeast

Location: Kwajalein / Bucholz


UV Index: 10 (Very high)

Visibility: 10 mi


Pressure: 29.82 "Hg

Humidity: 73%

Dew point: 72 °F

Location of KwajaleinLocation

Historic Weather in Kwajalein

°F

Kwajalein temperature yesterday

Maximum temperature yesterday: 87 °F (at 2:20 PM)
Minimum temperature yesterday: 80 °F (at 4:00 AM)
Average temperature yesterday: 83 °F

Past Weeks' High & Low Weather Summary

 TemperatureHumidityPressure
High88 °F (Apr 14, 2:20 PM)94% (Apr 11, 11:40 AM)29.90 "Hg (Apr 11, 11:40 AM)
Low75 °F (Apr 11, 11:00 AM)60% (Apr 5, 4:00 PM)29.74 "Hg (Apr 8, 4:00 PM)
Average82 °F75%29.82 "Hg
* Reported Apr 4 4:00 AM — Apr 19 4:00 AM, Kwajalein, Weather by CustomWeather, © 2014

Note: Actual official high and low records may vary slightly from our data, if they occured in-between our weather recording intervals... More about our weather records

Advertising

Historic Weather Conditions — Data for Previous 24 hours

 ConditionsComfort  
Time TempWeatherWind HumidityBarometerVisibility
4:00 AM
Apr 19
81 °FPassing clouds.18 mph73%29.82 "Hg10 mi
3:40 AM82 °FPassing clouds.20 mph73%29.82 "Hg10 mi
3:20 AM82 °FClear.18 mph73%29.82 "Hg10 mi
3:00 AM82 °FPartly cloudy.18 mph73%29.83 "Hg10 mi
2:40 AM82 °FPartly cloudy.20 mph74%29.83 "Hg10 mi
2:20 AM82 °FPassing clouds.16 mph74%29.83 "Hg10 mi
2:00 AM82 °FPartly cloudy.17 mph73%29.84 "Hg10 mi
1:20 AM82 °FPassing clouds.17 mph73%29.85 "Hg10 mi
1:00 AM82 °FPassing clouds.17 mph72%29.86 "Hg10 mi
12:40 AM82 °FPassing clouds.16 mph72%29.86 "Hg10 mi
12:20 AM82 °FPassing clouds.15 mph72%29.87 "Hg10 mi
12:00 AM82 °FPassing clouds.16 mph73%29.87 "Hg10 mi
11:40 PM
Apr 18
82 °FPassing clouds.17 mph73%29.87 "Hg10 mi
11:20 PM82 °FPartly cloudy.17 mph73%29.87 "Hg10 mi
11:00 PMN/APassing clouds.17 mphN/A29.87 "Hg10 mi
10:40 PMN/APartly cloudy.15 mphN/A29.87 "Hg10 mi
10:20 PMN/APassing clouds.17 mphN/A29.87 "Hg10 mi
10:00 PM82 °FPassing clouds.17 mph72%29.86 "Hg10 mi
9:20 PM82 °FClear.16 mph73%29.85 "Hg10 mi
9:00 PM82 °FClear.15 mph74%29.85 "Hg10 mi
8:40 PM82 °FPassing clouds.17 mph74%29.85 "Hg10 mi
8:20 PM82 °FPassing clouds.16 mph75%29.84 "Hg10 mi
8:00 PM82 °FPassing clouds.16 mph75%29.83 "Hg10 mi
7:40 PM82 °FPassing clouds.18 mph75%29.83 "Hg10 mi
7:20 PMN/APassing clouds.20 mphN/A29.82 "Hg10 mi
7:00 PMN/APassing clouds.18 mphN/A29.80 "Hg10 mi
6:40 PMN/AScattered clouds.18 mphN/A29.80 "Hg10 mi
6:00 PM84 °FScattered clouds.17 mph71%29.79 "Hg10 mi
5:40 PM85 °FScattered clouds.20 mph70%29.78 "Hg10 mi
5:20 PM85 °FSunny.20 mph69%29.78 "Hg10 mi
5:00 PM85 °FScattered clouds.21 mph70%29.78 "Hg10 mi
4:40 PM85 °FScattered clouds.18 mph70%29.78 "Hg10 mi
4:20 PM86 °FScattered clouds.18 mph70%29.78 "Hg10 mi
4:00 PM86 °FScattered clouds.18 mph69%29.79 "Hg10 mi
3:40 PM86 °FSunny.17 mph69%29.78 "Hg10 mi
3:20 PM86 °FScattered clouds.18 mph68%29.79 "Hg10 mi
3:00 PM87 °FScattered clouds.17 mph68%29.79 "Hg10 mi
2:40 PM87 °FScattered clouds.17 mph68%29.80 "Hg10 mi
2:20 PM87 °FScattered clouds.20 mph68%29.81 "Hg10 mi
2:00 PM87 °FScattered clouds.18 mph69%29.82 "Hg10 mi
1:40 PM87 °FBroken clouds.17 mph69%29.83 "Hg10 mi
1:20 PM86 °FBroken clouds.16 mph69%29.83 "Hg10 mi
1:00 PM86 °FScattered clouds.17 mph69%29.84 "Hg10 mi
12:40 PM87 °FScattered clouds.20 mph69%29.84 "Hg10 mi
12:20 PM87 °FScattered clouds.18 mph69%29.85 "Hg10 mi
12:00 PM87 °FScattered clouds.21 mph69%29.86 "Hg10 mi
11:20 AM86 °FScattered clouds.17 mph71%29.86 "Hg10 mi
11:00 AM85 °FScattered clouds.18 mph71%29.86 "Hg10 mi
10:40 AM85 °FScattered clouds.16 mph72%29.86 "Hg10 mi
10:20 AM85 °FScattered clouds.16 mph73%29.87 "Hg10 mi
10:00 AM84 °FScattered clouds.16 mph73%29.87 "Hg10 mi
9:40 AM84 °FScattered clouds.17 mph73%29.87 "Hg10 mi
9:20 AM84 °FScattered clouds.16 mph75%29.87 "Hg10 mi
9:00 AM83 °FScattered clouds.14 mph76%29.87 "Hg10 mi
8:20 AM82 °FScattered clouds.15 mph79%29.86 "Hg10 mi
8:00 AM81 °FScattered clouds.15 mph80%29.86 "Hg10 mi
7:20 AM81 °FPartly sunny.15 mph82%29.85 "Hg10 mi
7:00 AM81 °FScattered clouds.15 mph81%29.84 "Hg10 mi
6:40 AM81 °FPartly sunny.14 mph81%29.83 "Hg10 mi
6:20 AM81 °FPassing clouds.13 mph81%29.83 "Hg10 mi
6:00 AM81 °FPassing clouds.15 mph81%29.83 "Hg10 mi
5:00 AM81 °FPassing clouds.14 mph83%29.81 "Hg10 mi
4:20 AM80 °FPassing clouds.16 mph84%29.81 "Hg10 mi
4:00 AM80 °FPassing clouds.15 mph84%29.81 "Hg10 mi
Weather by CustomWeather, © 2014

See weather overview